Weather in Starokucherganovka

Russia / Astrakhan Oblast     46°19′34″N   47°57′15″E
temp.,
°C
wind,
m/s
gust,
m/s
humid.,
%
clouds,
%
prec.,
mm/h
press.,
hPa
HPBL,
m
27 july, tue
tue2701:00+27ene61225100 0.0 1018539
04:00+25e51028100 0.0 1018448
07:00+25ene51031100 0.0 1018576
10:00+27ene71023100 0.0 10181307
13:00+30ene7820100 0.0 10182116
16:00+29e5720100 0.0 10162073
19:00+25ssw2233100 0.0 1017116
22:00+23sse5742100 0.0 1017307
28 july, wed
wed2801:00+23wsw4743100 0.0 1017336
04:00+23w4841100 0.0 1017272
07:00+24wnw5949100 0.0 1017376
10:00+28wnw7732100 0.0 10161291
13:00+32wnw542526 0.0 10153133
16:00+33nnw441953 0.0 10133467
19:00+31n572193 0.0 10131131
22:00+27nnw23270 0.0 101430
29 july, thu
thu2901:00+26nnw332954 0.0 101441
04:00+24w23371 0.0 101435
07:00+26n22292 0.0 101485
10:00+32nne341913 0.0 10142831
13:00+35nne431522 0.0 10133586
16:00+36se651624 0.0 10123638
19:00+32sse76235 0.0 10121491
22:00+25s48500 0.0 1013188
30 july, fri
fri3001:00+24s35585 0.0 1013103
04:00+23ssw33600 0.0 101342
07:00+25s34540 0.0 1014153
10:00+32sw33250 0.0 10131603
13:00+35sw54160 0.0 10123250
16:00+36ssw64160 0.0 10113244
19:00+33s66170 0.0 10111309
22:00+26s46310 0.0 101291
31 july, sat
sat3101:00+24s22350 0.0 101126
04:00+23s33500 0.0 101138
07:00+26ene11470 0.0 101266
10:00+33ene33190 0.0 10111221
13:00+37ene33130 0.0 10093371
16:00+38se74110 0.0 10083686
19:00+35se66130 0.0 1009876
22:00+26se48420 0.0 1010147